Погода в Малой Ремизенке

Россия / Оренбургская область     52°09′39″N   52°45′19″E
темп.,
°C
ветер,
м/с
пор.,
м/с
влажн.,
%
обл.,
%
осадки,
мм/ч
давл.,
гПа
погр.,
м
26 июля, пн
пн2623:00+15с410440 0.0 1021213
02:00+13с33430 0.0 102248
05:00+12ссз33470 0.0 102225
08:00+15ссз47430 0.0 1023303
11:00+21с67310 0.0 10221805
14:00+23с55274 0.0 10222526
17:00+24ссз662411 0.0 10202845
20:00+22сз6829100 0.0 10201012
27 июля, вт
вт2723:00+16сз36435 0.0 102196
02:00+14ссз22515 0.0 102113
05:00+13ссз11555 0.0 102110
08:00+18сз224362 0.0 1021165
11:00+23сз45345 0.0 10192004
14:00+25сз562886 0.0 10182909
17:00+24зсз8733100 0.0 10172047
20:00+22ссз354123 0.0 1016324
28 июля, ср
ср2823:00+19зсз224721 0.0 101640
02:00+16сз33625 0.0 101627
05:00+13ссз39900 0.0 1016169
08:00+17с46674 0.0 1017296
11:00+22ссз46420 0.0 10161705
14:00+25ссз56295 0.0 10152577
17:00+26ссз67235 0.0 10142691
20:00+24ссз57260 0.0 1014722
29 июля, чт
чт2923:00+18ссв22392 0.0 101512
02:00+16ююз11435 0.0 101511
05:00+15ююз22440 0.0 101511
08:00+20ююз3436100 0.0 1015170
11:00+26юз5530100 0.0 10141332
14:00+29зюз4628100 0.0 10123118
17:00+29юз4729100 0.0 10112657
20:00+19ссв4772100 0.2 1012258
30 июля, пт
пт3023:00+18юв3581100 1.3 1011109
02:00+17ю4128538 0.3 1009250
05:00+17ююз4884100 0.6 1008148
08:00+19зюз487675 0.0 1008230
11:00+27з69495 0.0 10081247
14:00+29з9113395 0.0 10082720
17:00+30зсз9112989 0.0 10083134
20:00+27зсз593653 0.0 1008697